Jadwal Kapal Pelni KM Dorolonda 2019

Jadwal Keberangkatan Kapal KM Dorolonda – Kapal pelni dorolonda adalah salah satu kapal penumpang yang sejak lama di oprasikan oleh PT. Pelni untuk rute pelayaran tujuan Kijang, Tanjung Priok Jakarta, Tanjung Perak Surabaya, Makassar Bau Bau, Namlea, Ambon, Ternate, Bitung, bagi anda yang hendak melakukan perjalanan dengan tujuan rute kapal pelni km dorolonda di atas tadi anda bisa menumpang atau menggunakan kapal km dorolonda.

Untuk penyebrangan anda ke tempat tujuan anda, bagi anda yang sedang membutuhkan informasi mengenai jadwal terbaru kapal laut km dorolonda admin akan memberikan info terbaru mengenai jadwal kapal km dorolonda bulan ini, perlu anda ketahui untuk pemesanan tiket kapal pelni anda bisa melalui agen pelni yang tersebar di berbagai wilayah maupun kota seperti agen tiket pelni Surabaya, Makassar, Medan, Ambon, Jayapura, Jakarta dan masih banyak lainya.

Jadwal Kapal Dorolonda Terbaru

Jadwal Kapal Pelni KM Dorolonda

Untuk pembelian tiket kapal pelni secara online anda bisa langsung menuju website resmi pelni.co.id, untuk pembelian tiket kapal pelni selanjutnya anda bisa melakukan melalui Indomart, Alfamart, Ata Tour, Fast Travel Dan MMBC, admin selalu mengupdate jadwal kapal pelni di setiap bulanya, bagi anda yang ingin mengetahui jadwal kapal pelni lebaran 2019 maupun harga tiket kapal pelni lebaran 2019, admin akan mengupdate jadwal kapal lebaran 2019 di info artikel selanjutnya.

Sebelum admin memberikan informasi jadwal kapal laut KM dorolonda ada baiknya anda sedikit mengeathui informasi mengenai beberapa fasilitas yang sudah di perbaru oleh pelni guna untuk kenyamanan para penumpang kapal pelni yang hendak melakukan perjalan berlayarnya menuju pelabuhan yang mereka tuju, beberapa fasilitas pelni yang sudah di perbarui yaitu saat ini sudah ada tempat tidur yang layak bagi penumpang kapal pelni, nah untuk mengetahui detail info jadwal terbaru kapal dorolonda anda bisa melihat tabel di bawah ini mengenai jadwal kapal dorolonda bulan ini sebagai berikut.

Jadwal Kapal Pelni KM Dorolonda Terbaru

BERANGKAT DARI PELABUHANTIBA DI PELABUHANWAKTU KEBERANGKATAN KAPAL PELNI DOROLONDAWAKTU TIBA KAPAL PELNI DOROLONDA
TANJUNG PERAK [SURABAYA]MAKASSAR24-12-2018 | 02:5525-12-2018 | 05:00
MAKASSARBAU-BAU25-12-2018 | 07:0025-12-2018 | 21:00
BAU-BAUNAMLEA [BURU]25-12-2018 | 23:0026-12-2018 | 22:00
NAMLEA [BURU]AMBON26-12-2018 | 23:5927-12-2018 | 05:00
AMBONTERNATE27-12-2018 | 07:0028-12-2018 | 01:00
TERNATEBITUNG28-12-2018 | 03:0028-12-2018 | 11:00
BITUNGTERNATE28-12-2018 | 13:0028-12-2018 | 23:00
TERNATEAMBON29-12-2018 | 01:0029-12-2018 | 19:00
AMBONNAMLEA [BURU]29-12-2018 | 23:5930-12-2018 | 05:00
NAMLEA [BURU]BAU-BAU30-12-2018 | 07:0031-12-2018 | 05:00
BAU-BAUMAKASSAR31-12-2018 | 07:0031-12-2018 | 21:00
MAKASSARTANJUNG PERAK [SURABAYA]31-12-2018 | 23:0002-01-2019 | 01:00
TANJUNG PERAK [SURABAYA]TANJUNG PRIOK [JAKARTA]02-01-2019 | 03:0003-01-2019 | 03:00
TANJUNG PRIOK [JAKARTA]KIJANG [BINTAN]03-01-2019 | 06:0004-01-2019 | 10:00
KIJANG [BINTAN]TANJUNG PRIOK [JAKARTA]04-01-2019 | 13:0005-01-2019 | 17:00
TANJUNG PRIOK [JAKARTA]TANJUNG PERAK [SURABAYA]05-01-2019 | 23:5907-01-2019 | 00:01
TANJUNG PERAK [SURABAYA]MAKASSAR07-01-2019 | 02:0008-01-2019 | 05:00
MAKASSARBAU-BAU08-01-2019 | 07:0008-01-2019 | 21:00
BAU-BAUNAMLEA [BURU]08-01-2019 | 23:0009-01-2019 | 22:00
NAMLEA [BURU]AMBON09-01-2019 | 23:5910-01-2019 | 05:00
AMBONTERNATE10-01-2019 | 07:0011-01-2019 | 01:00
TERNATEBITUNG11-01-2019 | 03:0011-01-2019 | 11:00
BITUNGTERNATE11-01-2019 | 19:0012-01-2019 | 05:00
TERNATEAMBON12-01-2019 | 07:0013-01-2019 | 03:00
AMBONNAMLEA [BURU]13-01-2019 | 08:0013-01-2019 | 13:00
NAMLEA [BURU]BAU-BAU13-01-2019 | 15:0014-01-2019 | 13:00
BAU-BAUMAKASSAR14-01-2019 | 16:0015-01-2019 | 06:00
MAKASSARTANJUNG PERAK [SURABAYA]15-01-2019 | 10:0016-01-2019 | 12:00
TANJUNG PERAK [SURABAYA]TANJUNG PRIOK [JAKARTA]16-01-2019 | 16:0017-01-2019 | 16:00
TANJUNG PRIOK [JAKARTA]TANJUNG PERAK [SURABAYA]18-01-2019 | 15:0019-01-2019 | 16:00
TANJUNG PERAK [SURABAYA]MAKASSAR19-01-2019 | 21:0021-01-2019 | 02:00
MAKASSARBAU-BAU21-01-2019 | 06:0021-01-2019 | 20:00
BAU-BAUNAMLEA [BURU]21-01-2019 | 22:0022-01-2019 | 21:00
NAMLEA [BURU]AMBON22-01-2019 | 23:0023-01-2019 | 04:00
AMBONTERNATE23-01-2019 | 09:0024-01-2019 | 04:00
TERNATEBITUNG24-01-2019 | 06:0024-01-2019 | 14:00
BITUNGTERNATE25-01-2019 | 19:0026-01-2019 | 05:00
TERNATEAMBON26-01-2019 | 07:0027-01-2019 | 03:00
AMBONNAMLEA [BURU]27-01-2019 | 08:0027-01-2019 | 13:00
NAMLEA [BURU]BAU-BAU27-01-2019 | 15:0028-01-2019 | 13:00
BAU-BAUMAKASSAR28-01-2019 | 16:0029-01-2019 | 06:00
MAKASSARTANJUNG PERAK [SURABAYA]29-01-2019 | 10:0030-01-2019 | 12:00
TANJUNG PERAK [SURABAYA]TANJUNG PRIOK [JAKARTA]30-01-2019 | 16:0031-01-2019 | 16:00
TANJUNG PRIOK [JAKARTA]TANJUNG PERAK [SURABAYA]01-02-2019 | 15:0002-02-2019 | 16:00
TANJUNG PERAK [SURABAYA]MAKASSAR02-02-2019 | 21:0004-02-2019 | 02:00
MAKASSARBAU-BAU04-02-2019 | 06:0004-02-2019 | 20:00
BAU-BAUNAMLEA [BURU]04-02-2019 | 22:0005-02-2019 | 21:00
NAMLEA [BURU]AMBON05-02-2019 | 23:0006-02-2019 | 04:00
AMBONTERNATE06-02-2019 | 09:0007-02-2019 | 04:00
TERNATEBITUNG07-02-2019 | 06:0007-02-2019 | 14:00
BITUNGTERNATE08-02-2019 | 19:0009-02-2019 | 05:00
TERNATEAMBON09-02-2019 | 07:0010-02-2019 | 03:00
AMBONNAMLEA [BURU]10-02-2019 | 08:0010-02-2019 | 13:00
NAMLEA [BURU]BAU-BAU10-02-2019 | 15:0011-02-2019 | 13:00
BAU-BAUMAKASSAR11-02-2019 | 16:0012-02-2019 | 06:00
MAKASSARTANJUNG PERAK [SURABAYA]12-02-2019 | 10:0013-02-2019 | 12:00
TANJUNG PERAK [SURABAYA]TANJUNG PRIOK [JAKARTA]13-02-2019 | 16:0014-02-2019 | 16:00

Keterangan

  • Perlu anda ketahui bahwa jadwal keberangkatan kapal pelni dorolonda ini, sewaktu-waktu bisa mengalami perubahan tanpa adanya pemberitahuan terlebih dahulu yang disebabkan banyak faktor, seperti karena keterlambatan keberangkatan dari pelabuhan sebelumnya atau disebabkan oleh penyebab lainnya.
  • Kapal pelni dorolonda ini hanya menyediakan tiket kelas ekonomi saja, jadi anda jangan berharap untuk mencari tiket kelas 1 atau kelas 2.
  • Harga tiket kapal pelni ini dibedakan berdasarkan kelompok usia tertentu yang terbagi ke dalam 3 golongan yaitu bayi (0-23 bulan), anak (2-11 tahun) dan dewasa ( > 11 tahun)

Harga tiket Kapal Laut Pelni KM Dorolonda

  1. Harga Tiket Pelni KM Dorolonda Ambon – Namlea ∴∴ Rp 71.000 Rp 12.000
  2. Harga Tiket Pelni KM Dorolonda Ambon – Ternate ∴∴ Rp 195.000 Rp 25.000
  3. Harga Tiket Pelni KM Dorolonda Bau-Bau – Makassar ∴∴ Rp 154.000  Rp 21.000
  4. Harga Tiket Pelni KM Dorolonda Bau-Bau – Namlea ∴∴ Rp 307.000  Rp37.000
  5. Harga Tiket Pelni KM Dorolonda Bitung – Ternate ∴∴ Rp 173.500  Rp 22.000
  6. Harga Tiket Pelni KM Dorolonda Jakarta – Kijang ∴∴ Rp 326.000  Rp 38.000
  7. Harga Tiket Pelni KM Dorolonda Jakarta – Surabaya ∴∴ Rp 235.000  Rp 29.000
  8. Harga Tiket Pelni KM Dorolonda Kijang – Jakarta ∴∴ Rp 326.000  Rp 38.000
  9. Harga Tiket Pelni KM Dorolonda Makassar – Bau-Bau ∴∴ Rp 168.500 Rp 21.000
  10. Harga Tiket Pelni KM Dorolonda Makassar – Surabaya ∴∴ Rp 274.500 Rp 32.000
  11. Harga Tiket Pelni KM Dorolonda Namlea – Ambon ∴∴ Rp 63.500 Rp 12.000  
  12. Harga Tiket Pelni KM Dorolonda Namlea – Bau-Bau ∴∴ Rp 301.500 Rp 37.000
  13. Harga Tiket Pelni KM Dorolonda Surabaya – Makassar ∴∴ Rp 272.000  Rp 32.000
  14. Harga Tiket Pelni KM Dorolonda Surabaya – Tanjung Priok ∴∴ Rp 240.000  Rp 29.000
  15. Harga Tiket Pelni KM Dorolonda Ternate – Ambon ∴∴ Rp 190.000 Rp 25.000
  16. Harga Tiket Pelni KM Dorolonda Ternate – Bitung ∴∴ Rp 166.000 Rp 22.000

Baca Juga : Jadwal Kapal Sinabung

Informasi Lebih Lanjut Tentang  Jadwal Kapal Pelni Dan Tiket Kapal PELNI 2019 Silahkan Melalui Call Center

  • PSTN Jabodetabek: 162
  • Handphone: 021 162
  • PSTN Luar Jabodetabek: 021 21 88 7000
  • Fax: +62 21 6385 4130
  • E-mail: [email protected]

Jadwal Kapal Dorolonda Januari 2019 | Jadwal KM Dorolonda Februari 2019 | Jadwal Kapal Motor Dorolonda Maret 2019 | Jadwal Kapal Pelni Dorolonda April 2019 | Jadwal Kapal Laut Dorolonda Mei 2019 | Jadwal Keberangkatan Kapal Dorolonda Juni 2019 | Jadwal Keberangkatan KM Dorolonda Juli 2019 | Jadwal Keberangkatan Kapal Motor Dorolonda Agustus 2019 | Jadwal Keberangkatan Kapal Pelni Dorolonda September 2019 | Jadwal Keberangkatan Kapal Laut Dorolonda Oktober 2019 | Jadwal Terbaru Kapal Dorolonda November Tahun 2019 | Jadwal Terbaru Kapal Pelni Dorolonda Desember Tahun 2019 | Jadwal Kalpal Dorolonda Lebaran 2019 bisa memperoleh informasi yang anda cari tentang “Jadwal Terbaru Kapal Pelni 2019.